,,PA_Meas_PMT16A,,PR_Meas_QMR101_102,,RH_Meas_QMH101,,SR_Meas_QMS101,,TA_Meas_QMH101,,GenWind,,GenWind,
time,status,PA,status,PR,status,RH,status,SR,status,TA,status,DirAvg,status,SpdAvg,
2015-01-26, 07:56:04,VALID,918.985,VALID,0,VALID,97.2748,VALID,82.6222,VALID,20.0538,VALID,35,VALID,0,
2015-01-26, 07:57:04,VALID,919.009,VALID,0,VALID,97.2824,VALID,86.8125,VALID,20.1334,VALID,41,VALID,0,
2015-01-26, 07:58:04,VALID,919.026,VALID,0,VALID,97.2367,VALID,91.6473,VALID,20.1108,VALID,55,VALID,0,
2015-01-26, 07:59:04,VALID,919.018,VALID,0,VALID,97.2062,VALID,96.1598,VALID,20.1513,VALID,56,VALID,0,
2015-01-26, 08:00:04,VALID,919.03,VALID,0,VALID,97.1757,VALID,100.672,VALID,20.1303,VALID,57,VALID,0,
2015-01-26, 08:01:04,VALID,919.042,VALID,0,VALID,97.1681,VALID,105.4,VALID,20.1708,VALID,57,VALID,0,
2015-01-26, 08:02:04,VALID,919.047,VALID,0,VALID,97.1986,VALID,111.846,VALID,20.2083,VALID,55,VALID,0,
2015-01-26, 08:03:04,VALID,919.059,VALID,0,VALID,97.1681,VALID,124.417,VALID,20.2293,VALID,53,VALID,0,
2015-01-26, 08:04:04,VALID,919.091,VALID,0,VALID,97.1452,VALID,138.062,VALID,20.2473,VALID,48,VALID,0,
2015-01-26, 08:05:04,VALID,919.106,VALID,0,VALID,97.1452,VALID,158.046,VALID,20.3074,VALID,58,VALID,0,
2015-01-26, 08:06:04,VALID,919.084,VALID,0,VALID,97.0842,VALID,176.848,VALID,20.3253,VALID,56,VALID,0,
2015-01-26, 08:07:04,VALID,919.089,VALID,0,VALID,97.069,VALID,190.386,VALID,20.4049,VALID,38,VALID,0,
2015-01-26, 08:08:04,VALID,919.08,VALID,0,VALID,97.0385,VALID,180.609,VALID,20.5219,VALID,18,VALID,0,
2015-01-26, 08:09:04,VALID,919.082,VALID,0,VALID,97.0003,VALID,162.773,VALID,20.6179,VALID,18,VALID,0,
2015-01-26, 08:10:04,VALID,919.09,VALID,0,VALID,96.9165,VALID,151.599,VALID,20.6764,VALID,23,VALID,0,
2015-01-26, 08:11:04,VALID,919.129,VALID,0,VALID,96.703,VALID,147.839,VALID,20.717,VALID,23,VALID,0,
2015-01-26, 08:12:04,VALID,919.134,VALID,0,VALID,96.3829,VALID,149.666,VALID,20.756,VALID,42,VALID,0,
2015-01-26, 08:13:04,VALID,919.169,VALID,0,VALID,95.895,VALID,147.517,VALID,20.7755,VALID,42,VALID,0,
2015-01-26, 08:14:04,VALID,919.169,VALID,0,VALID,95.6281,VALID,150.847,VALID,20.834,VALID,42,VALID,0,
2015-01-26, 08:15:04,VALID,919.227,VALID,0,VALID,95.5367,VALID,153.533,VALID,20.912,VALID,43,VALID,0,
2015-01-26, 08:16:04,VALID,919.23,VALID,0,VALID,95.2851,VALID,157.401,VALID,20.9511,VALID,65,VALID,0,
2015-01-26, 08:17:04,VALID,919.248,VALID,0,VALID,94.9725,VALID,151.492,VALID,20.969,VALID,65,VALID,0,
2015-01-26, 08:18:04,VALID,919.277,VALID,0,VALID,94.1949,VALID,151.17,VALID,21.0096,VALID,149,VALID,0,
2015-01-26, 08:19:04,VALID,919.292,VALID,0,VALID,93.3945,VALID,160.195,VALID,21.008,VALID,150,VALID,0,
2015-01-26, 08:20:04,VALID,919.349,VALID,0,VALID,92.6245,VALID,177.385,VALID,20.9885,VALID,151,VALID,0,
2015-01-26, 08:21:04,VALID,919.372,VALID,0,VALID,92.7617,VALID,184.154,VALID,21.008,VALID,151,VALID,0,
2015-01-26, 08:22:04,VALID,919.366,VALID,0,VALID,92.4797,VALID,190.386,VALID,21.0681,VALID,151,VALID,0,
2015-01-26, 08:23:04,VALID,919.408,VALID,0,VALID,92.1671,VALID,196.188,VALID,21.047,VALID,151,VALID,0,
2015-01-26, 08:24:04,VALID,919.449,VALID,0,VALID,92.0985,VALID,199.626,VALID,21.125,VALID,151,VALID,0,
2015-01-26, 08:25:04,VALID,919.435,VALID,0,VALID,92.0223,VALID,188.559,VALID,21.2632,VALID,151,VALID,0,
2015-01-26, 08:26:04,VALID,919.484,VALID,0,VALID,91.7554,VALID,184.584,VALID,21.3786,VALID,151,VALID,0,
2015-01-26, 08:27:04,VALID,919.468,VALID,0,VALID,91.3285,VALID,181.253,VALID,21.5152,VALID,151,VALID,0,
2015-01-26, 08:28:04,VALID,919.499,VALID,0,VALID,90.6424,VALID,173.088,VALID,21.6128,VALID,151,VALID,0,
2015-01-26, 08:29:04,VALID,919.471,VALID,0,VALID,90.1774,VALID,162.773,VALID,21.7103,VALID,151,VALID,0,
2015-01-26, 08:30:04,VALID,919.482,VALID,0,VALID,89.6437,VALID,157.831,VALID,21.7688,VALID,159,VALID,0,
2015-01-26, 08:31:04,VALID,919.481,VALID,0,VALID,89.133,VALID,154.608,VALID,21.7298,VALID,162,VALID,0,
2015-01-26, 08:32:04,VALID,919.466,VALID,0,VALID,89.5294,VALID,154.93,VALID,21.7688,VALID,166,VALID,0,
2015-01-26, 08:33:04,VALID,919.487,VALID,0,VALID,88.9729,VALID,159.013,VALID,21.7298,VALID,172,VALID,1.20781,
2015-01-26, 08:34:04,VALID,919.493,VALID,0,VALID,88.4926,VALID,165.137,VALID,21.6501,VALID,174,VALID,0.847656,
2015-01-26, 08:35:04,VALID,919.525,VALID,0,VALID,88.5841,VALID,168.897,VALID,21.6323,VALID,174,VALID,0.632422,
2015-01-26, 08:36:04,VALID,919.517,VALID,0,VALID,88.7213,VALID,167.716,VALID,21.6128,VALID,174,VALID,0.845312,
2015-01-26, 08:37:04,VALID,919.544,VALID,0,VALID,88.9043,VALID,166.534,VALID,21.5737,VALID,174,VALID,0.627734,
2015-01-26, 08:38:04,VALID,919.546,VALID,0,VALID,89.2702,VALID,167.501,VALID,21.5737,VALID,174,VALID,0.75625,
2015-01-26, 08:39:04,VALID,919.557,VALID,0,VALID,88.95,VALID,167.931,VALID,21.5916,VALID,174,VALID,0.963672,
2015-01-26, 08:40:04,VALID,919.542,VALID,0,VALID,88.6375,VALID,166.319,VALID,21.6323,VALID,174,VALID,0.765234,
2015-01-26, 08:41:04,VALID,919.55,VALID,0,VALID,88.546,VALID,163.74,VALID,21.6501,VALID,175,VALID,1.19414,
2015-01-26, 08:42:04,VALID,919.544,VALID,0,VALID,88.3859,VALID,162.021,VALID,21.6518,VALID,175,VALID,0.640234,
2015-01-26, 08:43:04,VALID,919.53,VALID,0,VALID,89.133,VALID,159.335,VALID,21.6696,VALID,175,VALID,0.580078,
2015-01-26, 08:44:04,VALID,919.505,VALID,0,VALID,88.4774,VALID,160.302,VALID,21.6891,VALID,175,VALID,0.814844,
2015-01-26, 08:45:04,VALID,919.522,VALID,0,VALID,87.6998,VALID,164.922,VALID,21.7282,VALID,175,VALID,0.592578,
2015-01-26, 08:46:04,VALID,919.527,VALID,0,VALID,87.5244,VALID,169.435,VALID,21.7883,VALID,175,VALID,0.878906,
2015-01-26, 08:47:04,VALID,919.54,VALID,0,VALID,87.9209,VALID,173.303,VALID,21.8062,VALID,175,VALID,0.374219,
2015-01-26, 08:48:04,VALID,919.52,VALID,0,VALID,87.7608,VALID,176.741,VALID,21.8842,VALID,175,VALID,0.434766,
2015-01-26, 08:49:04,VALID,919.529,VALID,0,VALID,87.5321,VALID,180.716,VALID,21.9233,VALID,175,VALID,0.409375,
2015-01-26, 08:50:04,VALID,919.521,VALID,0,VALID,87.8599,VALID,181.79,VALID,21.9623,VALID,174,VALID,0.492188,
2015-01-26, 08:51:04,VALID,919.537,VALID,0,VALID,86.8612,VALID,176.741,VALID,21.9623,VALID,123,VALID,0.607422,
2015-01-26, 08:52:04,VALID,919.576,VALID,0,VALID,86.9679,VALID,175.451,VALID,21.9818,VALID,154,VALID,0.550391,
2015-01-26, 08:53:04,VALID,919.56,VALID,0,VALID,86.6477,VALID,168.038,VALID,22.0208,VALID,154,VALID,0.345703,
2015-01-26, 08:54:04,VALID,919.581,VALID,0,VALID,87.3948,VALID,168.145,VALID,22.0403,VALID,154,VALID,0.125781,
2015-01-26, 08:55:04,VALID,919.577,VALID,0,VALID,87.593,VALID,175.022,VALID,22.1005,VALID,154,VALID,0.378516,
2015-01-26, 08:56:04,VALID,919.609,VALID,0,VALID,87.1814,VALID,177.493,VALID,22.1591,VALID,156,VALID,0.688672,
2015-01-26, 08:57:04,VALID,919.644,VALID,0,VALID,86.541,VALID,176.956,VALID,22.1591,VALID,159,VALID,0.623047,
2015-01-26, 08:58:04,VALID,919.644,VALID,0,VALID,86.076,VALID,175.129,VALID,22.1396,VALID,159,VALID,0.548047,
2015-01-26, 08:59:04,VALID,919.661,VALID,0,VALID,86.4572,VALID,172.873,VALID,22.1005,VALID,159,VALID,0.314063,
2015-01-26, 09:00:04,VALID,919.685,VALID,0,VALID,87.0213,VALID,169.65,VALID,22.1005,VALID,159,VALID,0.653516,
2015-01-26, 09:01:04,VALID,919.706,VALID,0,VALID,87.2881,VALID,166.319,VALID,22.081,VALID,174,VALID,0.967188,
2015-01-26, 09:02:04,VALID,919.718,VALID,0,VALID,87.6998,VALID,164.063,VALID,22.1005,VALID,174,VALID,0.517187,
2015-01-26, 09:03:04,VALID,919.7,VALID,0,VALID,88.1801,VALID,162.558,VALID,22.1396,VALID,174,VALID,0.549609,
2015-01-26, 09:04:04,VALID,919.762,VALID,0,VALID,88.1343,VALID,161.054,VALID,22.1379,VALID,183,VALID,0.412109,
2015-01-26, 09:05:04,VALID,919.747,VALID,0,VALID,87.9132,VALID,159.55,VALID,22.1184,VALID,212,VALID,0.522656,
2015-01-26, 09:06:04,VALID,919.76,VALID,0,VALID,88.2868,VALID,158.798,VALID,22.1184,VALID,212,VALID,0.0214844,
2015-01-26, 09:07:04,VALID,919.752,VALID,0,VALID,88.424,VALID,160.302,VALID,22.1574,VALID,212,VALID,0.676562,
2015-01-26, 09:08:04,VALID,919.738,VALID,0,VALID,88.7671,VALID,164.278,VALID,22.1379,VALID,212,VALID,0.602734,
2015-01-26, 09:09:04,VALID,919.753,VALID,0,VALID,88.3249,VALID,169.757,VALID,22.1981,VALID,212,VALID,0.416797,
2015-01-26, 09:10:04,VALID,919.721,VALID,0,VALID,88.2029,VALID,177.6,VALID,22.2354,VALID,212,VALID,0.628906,
2015-01-26, 09:11:04,VALID,919.692,VALID,0,VALID,88.1724,VALID,187.27,VALID,22.1379,VALID,212,VALID,0.209375,
2015-01-26, 09:12:04,VALID,919.665,VALID,0,VALID,88.6222,VALID,197.047,VALID,22.1591,VALID,212,VALID,0,
2015-01-26, 09:13:04,VALID,919.69,VALID,0,VALID,88.4545,VALID,207.254,VALID,22.1379,VALID,212,VALID,0.821875,
2015-01-26, 09:14:04,VALID,919.643,VALID,0,VALID,88.1801,VALID,215.849,VALID,22.1379,VALID,233,VALID,1.12656,
2015-01-26, 09:15:04,VALID,919.645,VALID,0,VALID,87.1585,VALID,224.015,VALID,22.0794,VALID,240,VALID,0.750391,
2015-01-26, 09:16:04,VALID,919.592,VALID,0,VALID,87.8446,VALID,233.04,VALID,22.0598,VALID,214,VALID,0.869141,
2015-01-26, 09:17:04,VALID,919.612,VALID,0,VALID,87.9209,VALID,242.602,VALID,22.1184,VALID,217,VALID,0.390625,
2015-01-26, 09:18:04,VALID,919.627,VALID,0,VALID,88.4392,VALID,252.916,VALID,22.1964,VALID,226,VALID,0.619141,
2015-01-26, 09:19:04,VALID,919.579,VALID,0,VALID,88.4469,VALID,254.206,VALID,22.2338,VALID,224,VALID,0.644531,
2015-01-26, 09:20:04,VALID,919.599,VALID,0,VALID,87.9818,VALID,256.355,VALID,22.333,VALID,210,VALID,0.339063,
2015-01-26, 09:21:04,VALID,919.613,VALID,0,VALID,86.4267,VALID,259.47,VALID,22.372,VALID,224,VALID,1.43555,
2015-01-26, 09:22:04,VALID,919.619,VALID,0,VALID,87.1204,VALID,262.586,VALID,22.372,VALID,212,VALID,1.01523,
2015-01-26, 09:23:04,VALID,919.629,VALID,0,VALID,87.5092,VALID,265.272,VALID,22.4306,VALID,202,VALID,0.749219,
2015-01-26, 09:24:04,VALID,919.64,VALID,0,VALID,87.4177,VALID,267.636,VALID,22.5281,VALID,195,VALID,0.721484,
2015-01-26, 09:25:04,VALID,919.659,VALID,0,VALID,85.6262,VALID,270.107,VALID,22.5867,VALID,213,VALID,1.37852,
2015-01-26, 09:26:04,VALID,919.686,VALID,0,VALID,85.9083,VALID,274.512,VALID,22.6062,VALID,178,VALID,1.15156,
2015-01-26, 09:27:04,VALID,919.669,VALID,0,VALID,85.2908,VALID,280.529,VALID,22.6452,VALID,195,VALID,0.687891,
2015-01-26, 09:28:04,VALID,919.678,VALID,0,VALID,85.245,VALID,287.727,VALID,22.7038,VALID,202,VALID,0.0449219,
2015-01-26, 09:29:04,VALID,919.672,VALID,0,VALID,85.8702,VALID,295.785,VALID,22.7818,VALID,191,VALID,0.934766,
2015-01-26, 09:30:04,VALID,919.666,VALID,0,VALID,85.0697,VALID,303.951,VALID,22.8599,VALID,222,VALID,1.46133,
2015-01-26, 09:31:04,VALID,919.654,VALID,0,VALID,84.132,VALID,309.001,VALID,22.7818,VALID,219,VALID,1.42305,
2015-01-26, 09:32:04,VALID,919.664,VALID,0,VALID,84.7266,VALID,316.307,VALID,22.7411,VALID,215,VALID,0.664844,
2015-01-26, 09:33:04,VALID,919.679,VALID,0,VALID,84.7876,VALID,324.15,VALID,22.6452,VALID,235,VALID,1.39883,
2015-01-26, 09:34:04,VALID,919.667,VALID,0,VALID,85.4432,VALID,336.398,VALID,22.6257,VALID,228,VALID,0.456641,
2015-01-26, 09:35:04,VALID,919.661,VALID,0,VALID,85.6033,VALID,363.473,VALID,22.6435,VALID,238,VALID,0.819922,
2015-01-26, 09:36:04,VALID,919.68,VALID,0,VALID,84.8181,VALID,407.202,VALID,22.6825,VALID,226,VALID,0.316406,
2015-01-26, 09:37:04,VALID,919.675,VALID,0,VALID,83.5526,VALID,426.112,VALID,22.7428,VALID,248,VALID,0.982031,
2015-01-26, 09:38:04,VALID,919.664,VALID,0,VALID,85.367,VALID,545.479,VALID,22.9575,VALID,236,VALID,0,
2015-01-26, 09:39:04,VALID,919.67,VALID,0,VALID,83.7966,VALID,363.366,VALID,23.1722,VALID,193,VALID,0.715234,
2015-01-26, 09:40:04,VALID,919.675,VALID,0,VALID,81.9212,VALID,338.762,VALID,23.2893,VALID,203,VALID,0.863672,
2015-01-26, 09:41:04,VALID,919.718,VALID,0,VALID,80.8387,VALID,342.308,VALID,23.3478,VALID,191,VALID,0.763672,
2015-01-26, 09:42:04,VALID,919.703,VALID,0,VALID,80.7548,VALID,346.605,VALID,23.4845,VALID,203,VALID,0.730078,
2015-01-26, 09:43:04,VALID,919.679,VALID,0,VALID,78.0485,VALID,354.878,VALID,23.4437,VALID,250,VALID,0.834766,
2015-01-26, 09:44:04,VALID,919.706,VALID,0,VALID,79.6876,VALID,315.125,VALID,23.4064,VALID,238,VALID,0.000390625,
2015-01-26, 09:45:04,VALID,919.665,VALID,0,VALID,81.1513,VALID,307.711,VALID,23.3851,VALID,205,VALID,1.23789,
2015-01-26, 09:46:04,VALID,919.692,VALID,0,VALID,81.1284,VALID,314.803,VALID,23.4046,VALID,238,VALID,0.835547,
2015-01-26, 09:47:04,VALID,919.671,VALID,0,VALID,79.1311,VALID,306.852,VALID,23.4827,VALID,188,VALID,0,
2015-01-26, 09:48:04,VALID,919.688,VALID,0,VALID,79.8324,VALID,296.323,VALID,23.5022,VALID,195,VALID,0,
2015-01-26, 09:49:04,VALID,919.66,VALID,0,VALID,78.1934,VALID,294.711,VALID,23.5608,VALID,192,VALID,0,
2015-01-26, 09:50:04,VALID,919.66,VALID,0,VALID,78.5898,VALID,297.075,VALID,23.5998,VALID,199,VALID,0,
2015-01-26, 09:51:04,VALID,919.664,VALID,0,VALID,79.4817,VALID,287.19,VALID,23.5412,VALID,196,VALID,1.43438,
2015-01-26, 09:52:04,VALID,919.666,VALID,0,VALID,77.4996,VALID,282.57,VALID,23.4827,VALID,221,VALID,1.25977,
2015-01-26, 09:53:04,VALID,919.67,VALID,0,VALID,77.3624,VALID,288.265,VALID,23.4046,VALID,223,VALID,1.00508,
2015-01-26, 09:54:04,VALID,919.677,VALID,0,VALID,78.5364,VALID,283.645,VALID,23.3088,VALID,224,VALID,1.00117,
2015-01-26, 09:55:04,VALID,919.662,VALID,0,VALID,78.0943,VALID,263.231,VALID,23.2485,VALID,182,VALID,1.1957,
2015-01-26, 09:56:04,VALID,919.667,VALID,0,VALID,78.1019,VALID,231.965,VALID,23.229,VALID,181,VALID,0.974609,
2015-01-26, 09:57:04,VALID,919.644,VALID,0,VALID,79.5656,VALID,205.213,VALID,23.1899,VALID,190,VALID,0.683594,
2015-01-26, 09:58:04,VALID,919.661,VALID,0,VALID,79.3369,VALID,194.683,VALID,23.1704,VALID,179,VALID,0.771094,
2015-01-26, 09:59:04,VALID,919.663,VALID,0,VALID,79.375,VALID,198.551,VALID,23.1314,VALID,171,VALID,1.08633,
2015-01-26, 10:00:04,VALID,919.611,VALID,0,VALID,79.8858,VALID,208.973,VALID,23.1704,VALID,177,VALID,0.839063,
2015-01-26, 10:01:04,VALID,919.635,VALID,0,VALID,80.7853,VALID,220.577,VALID,23.2077,VALID,201,VALID,0.892578,
2015-01-26, 10:02:04,VALID,919.602,VALID,0,VALID,78.8337,VALID,231.643,VALID,23.229,VALID,180,VALID,1.00117,
2015-01-26, 10:03:04,VALID,919.624,VALID,0,VALID,78.8337,VALID,239.379,VALID,23.307,VALID,190,VALID,1.03516,
2015-01-26, 10:04:04,VALID,919.609,VALID,0,VALID,78.5822,VALID,240.991,VALID,23.307,VALID,186,VALID,0.534375,
2015-01-26, 10:05:04,VALID,919.596,VALID,0,VALID,78.9252,VALID,235.941,VALID,23.2467,VALID,181,VALID,0.542578,
2015-01-26, 10:06:04,VALID,919.591,VALID,0,VALID,79.1463,VALID,225.197,VALID,23.2875,VALID,181,VALID,1.09531,
2015-01-26, 10:07:04,VALID,919.583,VALID,0,VALID,79.1692,VALID,212.519,VALID,23.307,VALID,211,VALID,1.20547,
2015-01-26, 10:08:04,VALID,919.587,VALID,0,VALID,78.323,VALID,201.56,VALID,23.2467,VALID,212,VALID,0.503516,
2015-01-26, 10:09:04,VALID,919.625,VALID,0,VALID,78.4373,VALID,195.435,VALID,23.2875,VALID,212,VALID,0.691797,
2015-01-26, 10:10:04,VALID,919.612,VALID,0,VALID,78.4145,VALID,185.443,VALID,23.2485,VALID,165,VALID,1.31641,
2015-01-26, 10:11:04,VALID,919.611,VALID,0,VALID,79.6113,VALID,176.096,VALID,23.1314,VALID,164,VALID,0.455078,
2015-01-26, 10:12:04,VALID,919.622,VALID,0,VALID,81.3876,VALID,158.905,VALID,23.1687,VALID,164,VALID,0,
2015-01-26, 10:13:04,VALID,919.63,VALID,0,VALID,81.8679,VALID,144.938,VALID,23.229,VALID,167,VALID,0,
2015-01-26, 10:14:04,VALID,919.641,VALID,0,VALID,81.2122,VALID,132.26,VALID,23.268,VALID,167,VALID,0,
2015-01-26, 10:15:04,VALID,919.656,VALID,0,VALID,80.9836,VALID,120.871,VALID,23.2094,VALID,167,VALID,0,
2015-01-26, 10:16:04,VALID,919.651,VALID,0,VALID,80.5033,VALID,116.896,VALID,23.1687,VALID,168,VALID,0,
2015-01-26, 10:17:04,VALID,919.63,VALID,0,VALID,81.7764,VALID,116.574,VALID,23.1101,VALID,168,VALID,0,
2015-01-26, 10:18:04,VALID,919.623,VALID,0,VALID,82.1118,VALID,120.227,VALID,23.1314,VALID,168,VALID,0,
2015-01-26, 10:19:04,VALID,919.641,VALID,0,VALID,81.2427,VALID,149.451,VALID,23.0516,VALID,168,VALID,0,
2015-01-26, 10:20:04,VALID,919.61,VALID,0,VALID,81.6392,VALID,195.865,VALID,23.0728,VALID,168,VALID,0,
2015-01-26, 10:21:04,VALID,919.643,VALID,0,VALID,80.9454,VALID,231.106,VALID,23.1314,VALID,168,VALID,0,
2015-01-26, 10:22:04,VALID,919.618,VALID,0,VALID,80.7472,VALID,243.677,VALID,23.1882,VALID,167,VALID,0,
2015-01-26, 10:23:04,VALID,919.614,VALID,0,VALID,81.4638,VALID,245.396,VALID,23.2485,VALID,168,VALID,0,
2015-01-26, 10:24:04,VALID,919.631,VALID,0,VALID,82.3786,VALID,244.321,VALID,23.2857,VALID,168,VALID,0,
2015-01-26, 10:25:04,VALID,919.621,VALID,0,VALID,79.1311,VALID,246.148,VALID,23.3265,VALID,168,VALID,0,
2015-01-26, 10:26:04,VALID,919.615,VALID,0,VALID,80.0764,VALID,250.768,VALID,23.3461,VALID,168,VALID,0,
2015-01-26, 10:27:04,VALID,919.64,VALID,0,VALID,79.0243,VALID,255.817,VALID,23.3265,VALID,168,VALID,0,
2015-01-26, 10:28:04,VALID,919.653,VALID,0,VALID,79.0624,VALID,260.437,VALID,23.3656,VALID,168,VALID,0,
2015-01-26, 10:29:04,VALID,919.642,VALID,0,VALID,78.445,VALID,262.049,VALID,23.3851,VALID,168,VALID,0,
2015-01-26, 10:30:04,VALID,919.6,VALID,0,VALID,79.0701,VALID,261.834,VALID,23.5022,VALID,168,VALID,0,
2015-01-26, 10:31:04,VALID,919.609,VALID,0,VALID,77.5225,VALID,263.446,VALID,23.5412,VALID,205,VALID,0.736328,
2015-01-26, 10:32:04,VALID,919.602,VALID,0,VALID,77.8427,VALID,265.917,VALID,23.4046,VALID,209,VALID,0.616016,
2015-01-26, 10:33:04,VALID,919.551,VALID,0,VALID,78.6127,VALID,269.57,VALID,23.4028,VALID,209,VALID,0.336328,
2015-01-26, 10:34:04,VALID,919.559,VALID,0,VALID,79.6799,VALID,271.611,VALID,23.5412,VALID,209,VALID,0,
2015-01-26, 10:35:04,VALID,919.582,VALID,0,VALID,79.032,VALID,275.157,VALID,23.598,VALID,287,VALID,1.09531,
2015-01-26, 10:36:04,VALID,919.568,VALID,0,VALID,78.4297,VALID,279.562,VALID,23.6175,VALID,283,VALID,0.401953,
2015-01-26, 10:37:04,VALID,919.582,VALID,0,VALID,78.0638,VALID,286.438,VALID,23.6388,VALID,283,VALID,0.00078125,
2015-01-26, 10:38:04,VALID,919.546,VALID,0,VALID,78.1095,VALID,295.248,VALID,23.6193,VALID,287,VALID,0.761328,
2015-01-26, 10:39:04,VALID,919.539,VALID,0,VALID,77.797,VALID,331.886,VALID,23.5608,VALID,286,VALID,0.0378906,
2015-01-26, 10:40:04,VALID,919.536,VALID,0,VALID,77.8122,VALID,309.968,VALID,23.6175,VALID,286,VALID,0,
2015-01-26, 10:41:04,VALID,919.549,VALID,0,VALID,78.0866,VALID,303.629,VALID,23.6388,VALID,286,VALID,0,
2015-01-26, 10:42:04,VALID,919.516,VALID,0,VALID,78.5822,VALID,307.604,VALID,23.7364,VALID,286,VALID,0,
2015-01-26, 10:43:04,VALID,919.529,VALID,0,VALID,79.032,VALID,315.447,VALID,23.9139,VALID,287,VALID,0,
2015-01-26, 10:44:04,VALID,919.501,VALID,0,VALID,79.0167,VALID,326.299,VALID,24.0097,VALID,287,VALID,0,
2015-01-26, 10:45:04,VALID,919.5,VALID,0,VALID,77.2481,VALID,320.282,VALID,24.1269,VALID,285,VALID,0,
2015-01-26, 10:46:04,VALID,919.498,VALID,0,VALID,76.9279,VALID,313.191,VALID,24.1073,VALID,274,VALID,0,
2015-01-26, 10:47:04,VALID,919.484,VALID,0,VALID,76.2494,VALID,304.596,VALID,24.0878,VALID,287,VALID,0,
2015-01-26, 10:48:04,VALID,919.489,VALID,0,VALID,76.6001,VALID,297.182,VALID,24.0097,VALID,287,VALID,0,
2015-01-26, 10:49:04,VALID,919.482,VALID,0,VALID,76.623,VALID,288.157,VALID,24.0701,VALID,287,VALID,0,
2015-01-26, 10:50:04,VALID,919.492,VALID,0,VALID,75.7081,VALID,282.355,VALID,24.125,VALID,276,VALID,0,
2015-01-26, 10:51:04,VALID,919.505,VALID,0,VALID,75.6777,VALID,276.554,VALID,24.0665,VALID,269,VALID,0,
2015-01-26, 10:52:04,VALID,919.496,VALID,0,VALID,75.6624,VALID,268.173,VALID,24.0469,VALID,266,VALID,0,
2015-01-26, 10:53:04,VALID,919.488,VALID,0,VALID,75.2126,VALID,262.694,VALID,23.8713,VALID,261,VALID,0,
2015-01-26, 10:54:04,VALID,919.519,VALID,0,VALID,75.8225,VALID,257.536,VALID,23.8713,VALID,261,VALID,0,
2015-01-26, 10:55:04,VALID,919.503,VALID,0,VALID,75.8606,VALID,252.809,VALID,23.9103,VALID,261,VALID,0,
2015-01-26, 10:56:04,VALID,919.508,VALID,0,VALID,75.8149,VALID,245.503,VALID,23.9512,VALID,261,VALID,0,
2015-01-26, 10:57:04,VALID,919.527,VALID,0,VALID,75.7539,VALID,238.09,VALID,23.9493,VALID,261,VALID,0,
2015-01-26, 10:58:04,VALID,919.559,VALID,0,VALID,76.3638,VALID,233.362,VALID,23.9512,VALID,261,VALID,0,
2015-01-26, 10:59:04,VALID,919.52,VALID,0,VALID,75.7691,VALID,231.106,VALID,23.9902,VALID,262,VALID,0,
2015-01-26, 11:00:04,VALID,919.544,VALID,0,VALID,74.5494,VALID,230.676,VALID,24.0097,VALID,262,VALID,0,
2015-01-26, 11:01:04,VALID,919.546,VALID,0,VALID,74.2902,VALID,232.18,VALID,23.8926,VALID,261,VALID,0,
2015-01-26, 11:02:04,VALID,919.5,VALID,0,VALID,75.3346,VALID,234.544,VALID,23.7364,VALID,262,VALID,0,
2015-01-26, 11:03:04,VALID,919.536,VALID,0,VALID,76.8593,VALID,238.197,VALID,23.7169,VALID,262,VALID,0,
2015-01-26, 11:04:04,VALID,919.487,VALID,0,VALID,77.3472,VALID,240.238,VALID,23.756,VALID,262,VALID,0,
2015-01-26, 11:05:04,VALID,919.498,VALID,0,VALID,77.3929,VALID,239.379,VALID,23.834,VALID,262,VALID,0,
2015-01-26, 11:06:04,VALID,919.508,VALID,0,VALID,75.5023,VALID,236.693,VALID,23.8322,VALID,262,VALID,0,
2015-01-26, 11:07:04,VALID,919.529,VALID,0,VALID,77.088,VALID,229.172,VALID,23.834,VALID,262,VALID,0,
2015-01-26, 11:08:04,VALID,919.496,VALID,0,VALID,78.3535,VALID,223.155,VALID,23.9316,VALID,264,VALID,0,
2015-01-26, 11:09:04,VALID,919.496,VALID,0,VALID,75.8225,VALID,215.634,VALID,24.0683,VALID,290,VALID,0.939453,
2015-01-26, 11:10:04,VALID,919.5,VALID,0,VALID,74.4045,VALID,208.543,VALID,24.1055,VALID,290,VALID,0.642969,
2015-01-26, 11:11:04,VALID,919.492,VALID,0,VALID,74.7247,VALID,206.609,VALID,24.2226,VALID,290,VALID,0.369141,
2015-01-26, 11:12:04,VALID,919.51,VALID,0,VALID,73.848,VALID,208.543,VALID,24.2421,VALID,290,VALID,0.200391,
2015-01-26, 11:13:04,VALID,919.476,VALID,0,VALID,74.092,VALID,211.552,VALID,24.2226,VALID,290,VALID,0.430859,
2015-01-26, 11:14:04,VALID,919.488,VALID,0,VALID,74.9001,VALID,218.535,VALID,24.2031,VALID,290,VALID,0,
2015-01-26, 11:15:04,VALID,919.492,VALID,0,VALID,75.4642,VALID,221.651,VALID,24.244,VALID,248,VALID,0.456641,
2015-01-26, 11:16:04,VALID,919.478,VALID,0,VALID,75.3956,VALID,218.32,VALID,24.086,VALID,248,VALID,0.851953,
2015-01-26, 11:17:04,VALID,919.482,VALID,0,VALID,77.8198,VALID,226.486,VALID,23.9298,VALID,257,VALID,0.372656,
2015-01-26, 11:18:04,VALID,919.497,VALID,0,VALID,78.3458,VALID,214.667,VALID,23.9493,VALID,257,VALID,0,
2015-01-26, 11:19:04,VALID,919.449,VALID,0,VALID,78.3077,VALID,211.229,VALID,23.9689,VALID,257,VALID,0,
2015-01-26, 11:20:04,VALID,919.456,VALID,0,VALID,78.2772,VALID,212.626,VALID,24.0079,VALID,257,VALID,0,
2015-01-26, 11:21:04,VALID,919.409,VALID,0,VALID,78.8033,VALID,201.56,VALID,24.1269,VALID,257,VALID,0,
2015-01-26, 11:22:04,VALID,919.378,VALID,0,VALID,78.1934,VALID,198.551,VALID,24.1836,VALID,257,VALID,0,
2015-01-26, 11:23:04,VALID,919.39,VALID,0,VALID,76.8898,VALID,210.585,VALID,24.1854,VALID,257,VALID,0,
2015-01-26, 11:24:04,VALID,919.349,VALID,0,VALID,78.2544,VALID,226.164,VALID,24.125,VALID,257,VALID,0,
2015-01-26, 11:25:04,VALID,919.325,VALID,0,VALID,78.0638,VALID,247.007,VALID,24.1055,VALID,257,VALID,0,
2015-01-26, 11:26:04,VALID,919.328,VALID,0,VALID,76.9203,VALID,265.38,VALID,24.0097,VALID,257,VALID,0,
2015-01-26, 11:27:04,VALID,919.315,VALID,0,VALID,77.6521,VALID,279.562,VALID,23.8926,VALID,257,VALID,0,
2015-01-26, 11:28:04,VALID,919.3,VALID,0,VALID,78.3382,VALID,286.438,VALID,23.834,VALID,257,VALID,0,
2015-01-26, 11:29:04,VALID,919.314,VALID,0,VALID,79.192,VALID,280.636,VALID,23.8713,VALID,257,VALID,0,
2015-01-26, 11:30:04,VALID,919.295,VALID,0,VALID,76.8974,VALID,262.801,VALID,23.9689,VALID,258,VALID,0,
2015-01-26, 11:31:04,VALID,919.315,VALID,0,VALID,77.8275,VALID,252.809,VALID,23.9512,VALID,257,VALID,0,
2015-01-26, 11:32:04,VALID,919.273,VALID,0,VALID,79.9925,VALID,251.412,VALID,23.9316,VALID,257,VALID,0,
2015-01-26, 11:33:04,VALID,919.278,VALID,0,VALID,79.1616,VALID,286.868,VALID,23.9298,VALID,257,VALID,0,
2015-01-26, 11:34:04,VALID,919.277,VALID,0,VALID,78.1476,VALID,295.785,VALID,23.9689,VALID,257,VALID,0,
2015-01-26, 11:35:04,VALID,919.25,VALID,0,VALID,78.5136,VALID,295.785,VALID,23.8926,VALID,257,VALID,0,